[[{"header":{"parameterUnit":"m.s-1","parameterCategory":1,"la1":30.2991,"la2":30.254,"lo1":-89.0895,"lo2":-89.0444,"dy":0.0017,"dx":0.0017,"nx":28,"ny":28,"refTime":"2025-07-16T21:00:00:Z","depth":0,"parameterNumber":2,"parameterNumberName":"U-component_of_WINDS"},"data":[0,0,0,0,0,0,0,0,0,0,0,0,0,0,0,0,0,0,0,0,0,0,0,0,0,0,0,0,0,0,0,0,0,0,0,0,0,0,0,0,0,0,0,0,0,0,0,0,0,0,0,0,0,0,0,0,0,0,0.4801,0.4801,0,0.4791,0.4791,0.4791,0.4757,0.4756,0.4755,0.4755,0.4745,0.4745,0.4746,0,0,0,0,0,0,0,0,0,0,0,0,0,0.4793,0.4793,0.4801,0.4801,0.4801,0.4791,0.4791,0.4791,0.4757,0.4756,0.4755,0.4754,0.4745,0.4745,0.4746,0,0,0,0,0,0,0,0,0,0,0,0,0,0.4791,0.4793,0.4801,0.4783,0.4781,0.4791,0.4791,0.4791,0.4757,0.4756,0.4755,0.4754,0.4744,0.4745,0.4746,0.4773,0,0,0.4748,0.4748,0,0,0,0,0,0,0,0,0.4791,0.4791,0.4786,0.4784,0.4782,0.4774,0.4784,0.4785,0.4757,0.4766,0.4755,0.4753,0.4756,0.4755,0.4756,0.4772,0.4772,0.4748,0.4748,0.4749,0.4749,0,0,0,0,0,0,0,0.4791,0.4792,0.4797,0.4786,0.4784,0.4776,0.4774,0.4784,0.4768,0.4766,0.4763,0.4762,0.4754,0.4755,0.4755,0.4772,0.4748,0.4748,0.4749,0.4749,0.4811,0.4812,0,0,0,0,0,0,0.4794,0.4792,0.4798,0.4797,0.4784,0.4777,0.4775,0.4778,0.4767,0.4765,0.4763,0.4761,0.4755,0.4755,0.4755,0.4786,0.4749,0.4749,0.475,0.481,0.4811,0.4813,0,0,0,0,0,0,0.4794,0.4795,0.4798,0.4794,0.4794,0.4778,0.4782,0.4778,0.4779,0.4766,0.4762,0.4767,0.4754,0.4754,0.4769,0.4786,0.475,0.475,0.4808,0.481,0.4812,0.485,0,0,0,0,0,0,0.4794,0.4795,0.4805,0.4794,0.4794,0.4812,0.4783,0.4779,0.478,0.4777,0.4768,0.4766,0.4753,0.4768,0.4769,0.4786,0.4751,0.4807,0.4809,0.4811,0.4847,0.4852,0.4857,0,0,0,0,0,0.4794,0.4816,0.4805,0.4806,0.4806,0.4813,0.4813,0.4797,0.4782,0.4792,0.4783,0.4766,0.4783,0.477,0.4771,0.4788,0.4806,0.4808,0.4811,0.4844,0.4851,0.4857,0,0,0,0,0,0,0.4829,0.4814,0.4802,0.4822,0.4819,0.4807,0.4819,0.4805,0.4806,0.4803,0.4784,0.4782,0.48,0.4795,0.478,0.4814,0.4792,0.4795,0.4817,0.4823,0.4828,0.4829,0.4751,0,0,0,0,0,0.4839,0.4845,0.4832,0.485,0.485,0.4835,0.4837,0.4826,0.4822,0.4821,0.4813,0.481,0.4815,0.4819,0.4822,0.4846,0.4844,0.4858,0.4864,0.4868,0.4871,0.4884,0.489,0.4822,0.4822,0.4822,0,0,0.4859,0.4852,0.4857,0.4857,0.4854,0.4862,0.4834,0.4843,0.4849,0.4822,0.4836,0.483,0.4826,0.4846,0.4854,0.4842,0.489,0.4872,0.4875,0.4876,0.4888,0.4894,0.49,0.4824,0.4823,0.4823,0,0,0.4901,0.4896,0.4911,0.4908,0.4903,0.4893,0.4897,0.4887,0.4883,0.4896,0.4876,0.4883,0.4892,0.489,0.489,0.4932,0.4917,0.4934,0.4961,0.4974,0.498,0.4984,0.5,0.5006,0.4937,0.4937,0.4937,0,0.4927,0.4938,0.4921,0.4931,0.4932,0.4908,0.4924,0.4922,0.4918,0.492,0.4907,0.4918,0.4913,0.4932,0.4942,0.4943,0.4947,0.4935,0.498,0.4985,0.4989,0.5004,0.501,0.4939,0.4939,0.4938,0.4938,0,0.4971,0.4979,0.4992,0.4989,0.4991,0.5004,0.499,0.4994,0.4982,0.4974,0.4989,0.4982,0.4985,0.4988,0.4977,0.5006,0.4999,0.4984,0.4961,0.4998,0.5011,0.5017,0.4942,0.4941,0.4941,0.494,0,0,0.5034,0.5022,0.5027,0.5026,0.5019,0.5025,0.5037,0.504,0.5044,0.5043,0.5053,0.5061,0.5047,0.5047,0.5036,0.5047,0.5081,0.503,0.5029,0.504,0.5114,0.5126,0.5133,0.5071,0.5072,0.5073,0.5115,0,0.5074,0.5094,0.508,0.5103,0.511,0.5088,0.5098,0.5096,0.5088,0.5094,0.5086,0.5092,0.5073,0.5073,0.5083,0.5075,0.5096,0.5072,0.5081,0.5082,0.5083,0.514,0.5153,0.5193,0.512,0.5121,0.5121,0,0.5124,0.5125,0.5148,0.5141,0.5143,0.5153,0.5155,0.516,0.5157,0.5151,0.5151,0.5137,0.5149,0.5127,0.5143,0.5127,0.513,0.5127,0.5128,0.5129,0.5104,0.5143,0.5205,0.5211,0.5129,0.5129,0.5128,0,0.5168,0.5176,0.5191,0.5191,0.5182,0.5189,0.5186,0.5181,0.5184,0.5185,0.5187,0.519,0.5191,0.5194,0.5181,0.5166,0.52,0.5176,0.5196,0.5196,0.5204,0.5204,0.5268,0.5206,0.5205,0.5205,0.5205,0,0.5215,0.5231,0.5211,0.522,0.5238,0.522,0.5238,0.5232,0.5229,0.5237,0.5218,0.5226,0.5208,0.5215,0.5205,0.5221,0.5221,0.5217,0.5215,0.5219,0.522,0.5221,0.5218,0.5207,0.5207,0.5206,0.5206,0,0.5268,0.5255,0.527,0.5261,0.5259,0.5272,0.5264,0.5273,0.5264,0.5275,0.5277,0.5264,0.5271,0.5258,0.5263,0.5257,0.5279,0.5272,0.528,0.5278,0.5299,0.5298,0.5367,0.5375,0.5307,0.5307,0.5308,0,0.5298,0.531,0.5302,0.5306,0.5304,0.5311,0.5313,0.5297,0.5301,0.5299,0.5308,0.5313,0.5317,0.5329,0.532,0.5324,0.5317,0.5341,0.5318,0.5323,0.5318,0.5318,0.532,0.5346,0.5347,0.5348,0.5348,0,0.5355,0.5348,0.5352,0.5355,0.5359,0.536,0.536,0.5365,0.5348,0.5353,0.536,0.5362,0.5368,0.5374,0.5376,0.5373,0.5358,0.5356,0.5361,0.5366,0.5371,0.5369,0.5294,0.5354,0.5354,0.5353,0.5353,0.5353,0.5398,0.5407,0.5403,0.5409,0.5407,0.5408,0.5416,0.5409,0.5414,0.5417,0.5407,0.5417,0.5414,0.5415,0.5414,0.5422,0.5411,0.5418,0.542,0.5422,0.5425,0.5369,0.5422,0.5422,0.5421,0.5421,0.5421,0,0.5454,0.545,0.5456,0.5456,0.5461,0.5446,0.5446,0.5451,0.5459,0.5458,0.5462,0.547,0.5476,0.5468,0.5472,0.548,0.5473,0.5482,0.5481,0.5481,0.5434,0.543,0.5487,0.5487,0.5487,0.5487,0.5487,0.5487,0.5483,0.5499,0.5492,0.5507,0.5503,0.5512,0.5513,0.5514,0.5512,0.5523,0.5527,0.5522,0.5518,0.5522,0.5527,0.5525,0.5527,0.5538,0.5534,0.549,0.5484,0.5478,0.5474,0.5539,0.5539,0.558,0.558,0.558]},{"header":{"parameterUnit":"m.s-1","parameterCategory":1,"la1":30.2991,"la2":30.254,"lo1":-89.0895,"lo2":-89.0444,"dy":0.0017,"dx":0.0017,"nx":28,"ny":28,"refTime":"2025-07-16T21:00:00:Z","depth":0,"parameterNumber":3,"parameterNumberName":"V-component_of_WINDS"},"data":[0,0,0,0,0,0,0,0,0,0,0,0,0,0,0,0,0,0,0,0,0,0,0,0,0,0,0,0,0,0,0,0,0,0,0,0,0,0,0,0,0,0,0,0,0,0,0,0,0,0,0,0,0,0,0,0,0,0,-4.6055,-4.6056,0,-4.6134,-4.6135,-4.6136,-4.6144,-4.6143,-4.6143,-4.6142,-4.6217,-4.6219,-4.6222,0,0,0,0,0,0,0,0,0,0,0,0,0,-4.5907,-4.5909,-4.6055,-4.6056,-4.6057,-4.6134,-4.6135,-4.6136,-4.6144,-4.6143,-4.6142,-4.6142,-4.6216,-4.6219,-4.6222,0,0,0,0,0,0,0,0,0,0,0,0,0,-4.5977,-4.591,-4.6055,-4.6071,-4.6073,-4.6134,-4.6135,-4.6137,-4.6145,-4.6143,-4.6142,-4.6141,-4.6215,-4.6219,-4.6223,-4.6272,0,0,-4.6235,-4.6237,0,0,0,0,0,0,0,0,-4.5973,-4.5982,-4.6067,-4.607,-4.6072,-4.6128,-4.611,-4.6182,-4.6145,-4.6117,-4.6142,-4.614,-4.6188,-4.6194,-4.6211,-4.6275,-4.6279,-4.6236,-4.6238,-4.624,-4.6241,0,0,0,0,0,0,0,-4.5968,-4.5979,-4.6086,-4.6068,-4.6072,-4.6072,-4.6081,-4.6124,-4.6158,-4.6119,-4.612,-4.613,-4.6189,-4.6207,-4.6213,-4.628,-4.6235,-4.6239,-4.6242,-4.6243,-4.6391,-4.6392,0,0,0,0,0,0,-4.5961,-4.5975,-4.6084,-4.6089,-4.6019,-4.6076,-4.6086,-4.6111,-4.6158,-4.6164,-4.6131,-4.613,-4.6201,-4.6208,-4.6216,-4.6279,-4.624,-4.6244,-4.6246,-4.6389,-4.6391,-4.6393,0,0,0,0,0,0,-4.5958,-4.5971,-4.6081,-4.6032,-4.6046,-4.608,-4.6109,-4.6114,-4.6132,-4.6166,-4.6172,-4.6144,-4.62,-4.621,-4.6259,-4.6281,-4.6245,-4.6249,-4.6387,-4.639,-4.6392,-4.6403,0,0,0,0,0,0,-4.5953,-4.5969,-4.5989,-4.6033,-4.6049,-4.6124,-4.611,-4.6116,-4.614,-4.614,-4.618,-4.6185,-4.62,-4.6253,-4.6263,-4.6286,-4.6252,-4.6386,-4.6388,-4.6391,-4.6401,-4.6405,-4.6409,0,0,0,0,0,-4.5948,-4.5987,-4.599,-4.6003,-4.6075,-4.6125,-4.6134,-4.6152,-4.6142,-4.6162,-4.6184,-4.6184,-4.6277,-4.6258,-4.6269,-4.6294,-4.6384,-4.6388,-4.6391,-4.6399,-4.6404,-4.6409,0,0,0,0,0,0,-4.5942,-4.5993,-4.5997,-4.6051,-4.6084,-4.6126,-4.6152,-4.6157,-4.6191,-4.6189,-4.6208,-4.6217,-4.6266,-4.6284,-4.6262,-4.6345,-4.6329,-4.6335,-4.6332,-4.6337,-4.6341,-4.6336,-4.6256,0,0,0,0,0,-4.5948,-4.5987,-4.6028,-4.6072,-4.6089,-4.6118,-4.614,-4.6152,-4.6185,-4.6198,-4.6224,-4.6255,-4.6292,-4.6315,-4.635,-4.6403,-4.6413,-4.6426,-4.643,-4.6434,-4.6438,-4.647,-4.6477,-4.6403,-4.6403,-4.6403,0,0,-4.5959,-4.5991,-4.6014,-4.6072,-4.6098,-4.6137,-4.6129,-4.6169,-4.6198,-4.6204,-4.6253,-4.6273,-4.6309,-4.6361,-4.6385,-4.6378,-4.6461,-4.6438,-4.644,-4.6443,-4.6474,-4.6481,-4.6487,-4.6406,-4.6405,-4.6405,0,0,-4.5999,-4.6027,-4.6068,-4.6096,-4.6138,-4.6158,-4.6168,-4.621,-4.6225,-4.6275,-4.6281,-4.6314,-4.6376,-4.6403,-4.6424,-4.6478,-4.648,-4.6488,-4.651,-4.6541,-4.6546,-4.6552,-4.6572,-4.6579,-4.6493,-4.6493,-4.6493,0,-4.6007,-4.6067,-4.6088,-4.613,-4.6156,-4.6166,-4.6208,-4.6233,-4.6283,-4.63,-4.6292,-4.6373,-4.6397,-4.6457,-4.647,-4.6487,-4.6499,-4.6484,-4.6544,-4.655,-4.6555,-4.6575,-4.6582,-4.6494,-4.6494,-4.6494,-4.6493,0,-4.6075,-4.6117,-4.6145,-4.6197,-4.6226,-4.6267,-4.6294,-4.632,-4.633,-4.635,-4.6401,-4.6432,-4.6475,-4.649,-4.6498,-4.6551,-4.6546,-4.6541,-4.6525,-4.6563,-4.6582,-4.6589,-4.6495,-4.6495,-4.6495,-4.6494,0,0,-4.6112,-4.6179,-4.6189,-4.6214,-4.6262,-4.6294,-4.6336,-4.6381,-4.6404,-4.6438,-4.6474,-4.6528,-4.6525,-4.6549,-4.656,-4.6587,-4.663,-4.6579,-4.658,-4.6589,-4.6693,-4.6697,-4.6706,-4.6632,-4.6633,-4.6634,-4.669,0,-4.6159,-4.6238,-4.6259,-4.6325,-4.6364,-4.6376,-4.6413,-4.6446,-4.6466,-4.6502,-4.6523,-4.6562,-4.6554,-4.6569,-4.6596,-4.6619,-4.6651,-4.6615,-4.6665,-4.6667,-4.6657,-4.6715,-4.672,-4.6771,-4.6698,-4.6699,-4.67,0,-4.6224,-4.6264,-4.6335,-4.6381,-4.6398,-4.6431,-4.6476,-4.651,-4.6547,-4.656,-4.659,-4.6599,-4.6643,-4.6626,-4.6687,-4.6662,-4.6683,-4.6698,-4.67,-4.6706,-4.6686,-4.6724,-4.6787,-4.6795,-4.6711,-4.671,-4.671,0,-4.6246,-4.6317,-4.637,-4.639,-4.6445,-4.6468,-4.6492,-4.6529,-4.6556,-4.6593,-4.6611,-4.6652,-4.6675,-4.6706,-4.6727,-4.6712,-4.6787,-4.677,-4.6799,-4.6798,-4.6814,-4.6813,-4.6883,-4.6826,-4.6826,-4.6826,-4.6826,0,-4.6297,-4.634,-4.6381,-4.6413,-4.6462,-4.6486,-4.6533,-4.6557,-4.659,-4.6627,-4.6638,-4.6671,-4.6696,-4.6733,-4.6749,-4.6798,-4.6807,-4.6819,-4.6823,-4.6819,-4.6818,-4.6834,-4.6831,-4.6828,-4.6828,-4.6827,-4.6827,0,-4.633,-4.6359,-4.6418,-4.6466,-4.6479,-4.6513,-4.6554,-4.6585,-4.6607,-4.6653,-4.6665,-4.6699,-4.6743,-4.6767,-4.682,-4.6832,-4.6887,-4.6888,-4.6875,-4.6877,-4.6905,-4.6903,-4.6988,-4.7002,-4.6935,-4.6935,-4.6936,0,-4.6361,-4.6395,-4.6449,-4.6476,-4.6501,-4.6542,-4.6571,-4.6596,-4.6625,-4.6673,-4.6698,-4.6744,-4.6782,-4.6851,-4.688,-4.6921,-4.6925,-4.6952,-4.6931,-4.6926,-4.6927,-4.6925,-4.6929,-4.6956,-4.6956,-4.6957,-4.6957,0,-4.6413,-4.6427,-4.6469,-4.6517,-4.6551,-4.6589,-4.6626,-4.6647,-4.6678,-4.671,-4.6757,-4.6787,-4.6844,-4.6889,-4.6934,-4.6957,-4.6962,-4.6964,-4.6973,-4.6969,-4.6961,-4.6968,-4.6887,-4.6962,-4.6961,-4.6961,-4.6961,-4.696,-4.6447,-4.6479,-4.6523,-4.657,-4.6602,-4.6637,-4.667,-4.6698,-4.6738,-4.6789,-4.6801,-4.6851,-4.689,-4.6951,-4.6975,-4.7014,-4.7009,-4.7021,-4.7025,-4.7028,-4.703,-4.6955,-4.7022,-4.7022,-4.7022,-4.7022,-4.7022,0,-4.6502,-4.6532,-4.6574,-4.6629,-4.6666,-4.6671,-4.6713,-4.6743,-4.6788,-4.6825,-4.6863,-4.6918,-4.6963,-4.6996,-4.7041,-4.7066,-4.707,-4.7077,-4.7076,-4.7082,-4.7031,-4.702,-4.7074,-4.7074,-4.7074,-4.7074,-4.7074,-4.7074,-4.6534,-4.659,-4.6609,-4.6681,-4.6709,-4.6761,-4.6785,-4.6818,-4.6848,-4.691,-4.6949,-4.6971,-4.7007,-4.7055,-4.7096,-4.7105,-4.7121,-4.7129,-4.7138,-4.709,-4.7085,-4.7079,-4.7069,-4.7132,-4.7132,-4.7185,-4.7185,-4.7186]}]]